Regional Weather Roundup
Issued by NWS

Home | Current Version | Previous Version | Graphics & Text | Print | Product List | Glossary On
Versions: 1 2 3 4 5 6 7 8 9 10 11 12 13 14 15 16 17 18 19 20 21 22 23 24 25 26 27 28 29 30 31 32 33 34 35 36 37 38 39 40 41 42 43 44 45 46 47 48 49 50
299
ASUS43 KBIS 221102
RWRND

NORTH DAKOTA REGIONAL WEATHER ROUNDUP
NATIONAL WEATHER SERVICE BISMARCK ND
600 AM CDT WED MAR 22 2017

NOTE: "FAIR" INDICATES FEW OR NO CLOUDS BELOW 12,000 FEET WITH NO
SIGNIFICANT WEATHER AND/OR OBSTRUCTIONS TO VISIBILITY.


NDZ001>003-009>011-017-221200-
NORTHWEST NORTH DAKOTA

CITY           SKY/WX    TMP DP  RH WIND       PRES   REMARKS
WILLISTON      MOCLDY    29  21  72 SE8G22    30.02F
MINOT          CLOUDY    23  17  78 SE17      30.18F WCI   9
MINOT AFB      CLOUDY    22  17  83 SE21G30   30.18F WCI   6
$$

NDZ018>021-031>035-040>046-221200-
SOUTHWEST NORTH DAKOTA

CITY           SKY/WX    TMP DP  RH WIND       PRES   REMARKS
BISMARCK       CLOUDY    25  17  72 SE20      30.24F WCI  11
DICKINSON      CLOUDY    25  18  74 SE28G37   30.00F WCI   9
GARRISON         N/A     23  18  81 SE20      30.16F WCI   8
HETTINGER ARPT CLOUDY    26  20  77 SE17G24   30.05F WCI  13
$$

NDZ004>008-012>016-024-026-027-054-221200-
NORTHEAST NORTH DAKOTA

CITY           SKY/WX    TMP DP  RH WIND       PRES   REMARKS
GRAND FORKS    CLOUDY    19   9  65 SE9       30.47F WCI   8
DEVILS LAKE    CLOUDY    17  13  84 SE15      30.35F WCI   2
$$

NDZ022-023-025-028>030-036>039-047>053-221200-
SOUTHEAST NORTH DAKOTA

CITY           SKY/WX    TMP DP  RH WIND       PRES   REMARKS
FARGO          CLOUDY    20   7  57 SE9       30.47F WCI   9
JAMESTOWN      CLOUDY    20  14  77 SE16      30.34F WCI   6
$$





USA.gov is the U.S. government's official web portal to all federal, state and local government web resources and services.